User: anonymous   Login
Location: Fort Wayne
(41.1310°N, 85.1290°W)
Time: 11:30:00
(UTC-04:00)
Language:

CZ-2C R/B - Orbit

View from above orbital plane
View from above orbital plane
View from above satellite
View from above satellite

Ground track
Ground track

The orbit data is extracted from the following two-line orbital elements,

1 36089U 09061B   16274.14975013  .00000097  00000-0  35221-4 0  9995
2 36089  98.0517 281.5676 0083216 126.0806 276.3385 14.49600845364037
Epoch (UTC): 30 September 2016 03:35:38
Eccentricity: 0.0083216
inclination: 98.0517°
perigee height: 668 km
apogee height: 786 km
right ascension of ascending node: 281.5676°
argument of perigee: 126.0806°
revolutions per day: 14.49600845
mean anomaly at epoch: 276.3385°
orbit number at epoch: 36403

The dashed part of the orbit path shows where the satellite is in the earth's shadow,  

DLR